Weather Roundup
Issued by NWS

Home | Current Version | Previous Version | Graphics & Text | Print | Product List | Glossary Off
Versions: 1 2 3 4 5 6 7 8 9 10 11 12 13 14 15 16 17 18 19 20 21 22 23 24 25 26 27 28 29 30 31 32 33 34 35 36 37 38 39 40 41 42 43 44 45 46 47 48 49 50

000
NZUS93 KARX 201710
HRRWXR

CURRENT HOURLY OBSERVATIONS ACROSS
MUCH OF THE UPPER MISSISSIPPI VALLEY
NATIONAL WEATHER SERVICE LA CROSSE WI
1200 PM CDT SUN APR 20 2014


...SOUTHEAST MINNESOTA...


CITY           SKY/WX    TMP DP  RH WIND       PRES   REMARKS
ROCHESTER      LGT RAIN  55  52  89 S6        30.06F FOG
ROCHESTER/MAYO CLOUDY    54  53  94 SE8       30.05F
WINONA           N/A    N/A N/A N/A MISG        N/A
AUSTIN         CLOUDY    55  54  94 SE3       30.03F
ALBERT LEA     LGT RAIN  57  55  94 S6        30.03R
DODGE CENTER   CLOUDY    57  55  94 S9        30.05S
PRESTON        CLOUDY    54  52  95 S12G17    30.08S FOG
OWATONNA       CLOUDY    59  52  77 SE5       30.03F
FARIBAULT      CLOUDY    64  48  55 CALM      30.03F
$$

...ELSEWHERE IN MINNESOTA...


CITY           SKY/WX    TMP DP  RH WIND       PRES   REMARKS
MINNEAPOLIS    MOSUNNY   67  40  37 VRB7      30.03F
INTNL FALLS    SUNNY     50  33  52 NW6       30.03S
DULUTH         SUNNY     57  34  41 N7        30.04R
RED WING       PTSUNNY   63  50  63 S5        30.03F
REDWOOD FALLS  SUNNY     70  39  32 E9        30.01F
MANKATO        MOSUNNY   63  54  72 NE8       30.01F
WORTHINGTON    SUNNY     68  36  30 E14       30.03F
FAIRMONT       MOSUNNY   63  52  67 S7        30.04S
$$

...SOUTHWEST WISCONSIN...


CITY           SKY/WX    TMP DP  RH WIND       PRES   REMARKS
LA CROSSE      LGT RAIN  55  51  86 S6        30.09S
PRAIRIE DU CHI CLOUDY    62  47  59 CALM      30.11S
BOSCOBEL       CLOUDY    67  48  50 SW7       30.11S
LONE ROCK      CLOUDY    67  43  41 SW6       30.11F
PLATTEVILLE    CLOUDY    72  43  35 S16       30.12S
FORT MC COY    CLOUDY    55  51  84 S3        30.10F
CAMP DOUGLAS   LGT RAIN  55  54  94 SE6       30.10S
VIROQUA        CLOUDY    54  50  86 S6        30.11R
WIS DELLS      CLOUDY    62  40  44 SW8       30.12S
$$

...ELSEWHERE IN WISCONSIN...


CITY           SKY/WX    TMP DP  RH WIND       PRES   REMARKS
MILWAUKEE      PTSUNNY   70  38  31 S15       30.15F
MADISON        MOSUNNY   68  41  37 S9        30.12S
GREEN BAY      LGT RAIN  51  46  83 S7        30.13F
EAU CLAIRE     CLOUDY    62  50  64 S10       30.05S
BLACK RVR FLS  LGT RAIN  54  54 100 S3        30.09R
MEDFORD        CLOUDY    59  52  78 S12       30.07S
WAUSAU         PTSUNNY   58  50  75 SW14      30.07S
WIS RAPIDS     LGT RAIN  52  49  89 S7        30.11S
MARSHFIELD     CLOUDY    59  50  72 SW12      30.08S
RICE LAKE      SUNNY     65  43  44 CALM      30.05F
$$

...NORTHEAST IOWA...


CITY           SKY/WX    TMP DP  RH WIND       PRES   REMARKS
WATERLOO       CLOUDY    59  51  75 MISG      30.07F
DUBUQUE        MOSUNNY   73  46  38 SW13      30.11S
DECORAH        LGT RAIN  54  52  94 S7        30.09F
MASON CITY     TSTM      53  51  93 SE8       30.06R
CHARLES CITY   CLOUDY    52  50  93 SE17      30.03F FOG
OELWEIN        CLOUDY   N/A N/A N/A S6        30.10F
$$

...ELSEWHERE IN IOWA...


CITY           SKY/WX    TMP DP  RH WIND       PRES   REMARKS
DES MOINES     PTSUNNY   80  52  37 SW16G25   30.02F
IOWA CITY      MOSUNNY   76  48  37 SW15G22   30.10F
FORT DODGE     MOSUNNY   70  55  60 SE6       30.02F
MARSHALLTOWN   MOSUNNY   74  54  49 S12G18    30.04F
CEDAR RAPIDS   MOSUNNY   75  46  35 S15       30.07F
$$

...NORTHERN ILLINOIS...


CITY           SKY/WX    TMP DP  RH WIND       PRES   REMARKS
CHICAGO-OHARE  PTSUNNY   71  37  28 S13       30.17F
DUPAGE         SUNNY     71  39  31 SW15      30.17F
CHICAGO-MIDWAY PTSUNNY   70  38  31 S14       30.18F
MOLINE         SUNNY     78  43  28 SW14      30.10F
ROCKFORD       MOSUNNY   73  41  31 S13G21    30.15F
STERLING       SUNNY     75  45  33 SW10G16   30.13F
PEORIA         PTSUNNY   73  43  33 S8        30.16F
$$

NOTE: "FAIR" INDICATES FEW OR NO CLOUDS BELOW 12,000 FEET WITH NO
SIGNIFICANT WEATHER AND/OR OBSTRUCTIONS TO VISIBILITY. WIND
SPEEDS ARE IN MILES-PER-HOUR.



USA.gov is the U.S. government's official web portal to all federal, state and local government web resources and services.